Weather History for Northeast Philadelphia, PA

Change the Weather History Date:

Tuesday, May 28, 2013

  Actual Average Record
Temperature  
Mean Temperature 58 °F -  
Max Temperature 64 °F 72 °F 91 °F (2012)
Min Temperature 53 °F 53 °F 43 °F (1997)
Degree Days  
Heating Degree Days 6    
Growing Degree Days 8 (Base 50)    
Moisture  
Dew Point 57 °F    
Average Humidity 85    
Maximum Humidity 97    
Minimum Humidity 55    
Precipitation  
Precipitation 0.27 in - - ()
Sea Level Pressure  
Sea Level Pressure 30.18 in    
Wind  
Wind Speed 2 mph (ESE)    
Max Wind Speed 8 mph    
Max Gust Speed -    
Visibility 6 miles    
Events Rain    
Averages and records for this station are not official NWS values.
T = Trace of Precipitation, MM = Missing Value Source: NWS Daily Summary

Daily Weather History Graph

Daily Weather History Graph

Search for Another Location

Airport:

Trip Planner

Search our weather history database for the weather conditions in past years. The results will help you decide how hot, cold, wet, or windy it might be!

Date:

Astronomy

May. 28, 2013 Rise Set
Actual Time 5:34 AM EDT 8:20 PM EDT
Civil Twilight 5:02 AM EDT 8:52 PM EDT
Nautical Twilight 4:23 AM EDT 9:32 PM EDT
Astronomical Twilight 3:37 AM EDT 10:18 PM EDT
Moon 11:42 PM EDT (5/28) 9:20 AM EDT (5/28)
Length of Visible Light 15h 49m
Length of Day
14h 45m
Waning Gibbous, 83% of the Moon is Illuminated
May 28
Waning Gibbous
May 31
Last Quarter
Jun 8
New
Jun 16
First Quarter
Jun 23
Full

Hourly Weather History & Observations

Time (EDT) Temp. Dew Point Humidity Pressure Visibility Wind Dir Wind Speed Gust Speed Precip Events Conditions
12:54 AM 59.0 °F 43.0 °F 55% 30.23 in 10.0 mi Calm Calm - N/A   Clear
1:54 AM 55.9 °F 44.1 °F 64% 30.22 in 10.0 mi Calm Calm - N/A   Clear
2:54 AM 54.0 °F 46.0 °F 75% 30.22 in 10.0 mi Calm Calm - N/A   Clear
3:54 AM 53.1 °F 45.0 °F 74% 30.21 in 10.0 mi NE 3.5 mph - N/A   Scattered Clouds
4:54 AM 54.0 °F 48.0 °F 80% 30.21 in 10.0 mi Calm Calm - N/A   Partly Cloudy
5:54 AM 54.0 °F 48.0 °F 80% 30.22 in 10.0 mi Calm Calm - N/A   Clear
6:54 AM 57.9 °F 50.0 °F 75% 30.22 in 10.0 mi Calm Calm - N/A   Clear
7:54 AM 60.1 °F 52.0 °F 75% 30.22 in 10.0 mi Calm Calm - N/A   Overcast
8:54 AM 63.0 °F 51.1 °F 65% 30.23 in 10.0 mi South 3.5 mph - 0.00 in Rain Light Rain
9:54 AM 62.1 °F 53.1 °F 72% 30.23 in 10.0 mi East 3.5 mph - 0.00 in Rain Light Rain
10:54 AM 61.0 °F 55.9 °F 83% 30.23 in 6.0 mi ESE 3.5 mph - 0.03 in Rain Rain
11:54 AM 61.0 °F 57.0 °F 87% 30.22 in 7.0 mi ESE 3.5 mph - 0.05 in Rain Light Rain
12:54 PM 61.0 °F 59.0 °F 93% 30.20 in 4.0 mi ESE 6.9 mph - 0.05 in Rain Light Rain
1:25 PM 62.6 °F 59.0 °F 88% 30.18 in 5.0 mi SE 6.9 mph - 0.02 in Rain Light Rain
1:47 PM 62.6 °F 59.0 °F 88% 30.17 in 4.0 mi SE 6.9 mph - 0.05 in Rain Light Rain
1:54 PM 62.1 °F 60.1 °F 93% 30.18 in 4.0 mi SE 5.8 mph - 0.05 in Rain Rain
2:54 PM 63.0 °F 61.0 °F 93% 30.17 in 5.0 mi SSW 8.1 mph - 0.07 in Rain Light Rain
3:54 PM 64.0 °F 61.0 °F 90% 30.16 in 7.0 mi SW 5.8 mph - 0.01 in   Overcast
4:08 PM 64.4 °F 60.8 °F 88% 30.16 in 7.0 mi Calm Calm - 0.00 in   Overcast
4:54 PM 64.9 °F 62.1 °F 90% 30.15 in 7.0 mi Variable 3.5 mph - 0.00 in   Overcast
5:01 PM 64.4 °F 62.6 °F 94% 30.15 in 7.0 mi SSW 5.8 mph - N/A   Overcast
5:54 PM 64.9 °F 62.1 °F 90% 30.15 in 6.0 mi Calm Calm - N/A   Overcast
6:54 PM 64.9 °F 62.1 °F 90% 30.14 in 6.0 mi East 3.5 mph - 0.00 in Rain Light Rain
7:12 PM 64.4 °F 62.6 °F 94% 30.14 in 5.0 mi Calm Calm - 0.00 in Rain Light Rain
7:19 PM 64.4 °F 62.6 °F 94% 30.14 in 6.0 mi East 3.5 mph - 0.00 in   Overcast
7:54 PM 64.0 °F 62.1 °F 93% 30.13 in 4.0 mi ESE 5.8 mph - 0.00 in   Overcast
8:54 PM 64.0 °F 62.1 °F 93% 30.13 in 5.0 mi ESE 3.5 mph - N/A   Overcast
9:54 PM 63.0 °F 62.1 °F 97% 30.14 in 3.0 mi ESE 4.6 mph - 0.01 in Rain Light Rain
10:54 PM 62.1 °F 61.0 °F 96% 30.13 in 3.0 mi East 3.5 mph - 0.00 in   Overcast
11:02 PM 62.6 °F 60.8 °F 94% 30.13 in 2.0 mi East 5.8 mph - N/A   Overcast
11:52 PM 62.6 °F 60.8 °F 94% 30.13 in 1.5 mi ENE 4.6 mph - N/A   Overcast
11:54 PM 62.1 °F 61.0 °F 96% 30.13 in 1.5 mi ENE 3.5 mph - N/A   Overcast